[[{"header":{"parameterUnit":"m.s-1","parameterCategory":1,"la1":30.2991,"la2":30.254,"lo1":-89.0895,"lo2":-89.0444,"dy":0.0017,"dx":0.0017,"nx":28,"ny":28,"refTime":"2024-02-22T03:00:00:Z","depth":0,"parameterNumber":2,"parameterNumberName":"U-component_of_WINDS"},"data":[0,0,0,0,0,0,0,0,0,0,0,0,0,0,0,0,0,0,0,0,0,0,0,0,0,0,0,0,0,0,0,0,0,0,0,0,0,0,0,0,0,0,0,0,0,0,0,0,0,0,0,0,0,0,0,0,0,0,3.6418,3.6419,0,3.6486,3.6487,3.6487,3.6486,3.6485,3.6484,3.6483,3.6553,3.6555,3.6558,0,0,0,0,0,0,0,0,0,0,0,0,0,3.6292,3.6294,3.6418,3.6419,3.642,3.6486,3.6487,3.6488,3.6486,3.6485,3.6484,3.6483,3.6552,3.6555,3.6558,0,0,0,0,0,0,0,0,0,0,0,0,0,3.6352,3.6295,3.6418,3.6427,3.6429,3.6486,3.6487,3.6488,3.6486,3.6485,3.6484,3.6482,3.6551,3.6555,3.6559,3.6611,0,0,3.6571,3.6573,0,0,0,0,0,0,0,0,3.6348,3.6356,3.6425,3.6427,3.6429,3.6476,3.6467,3.6529,3.6487,3.6464,3.6483,3.6482,3.6528,3.6534,3.655,3.6614,3.6617,3.6571,3.6574,3.6576,3.6577,0,0,0,0,0,0,0,3.6344,3.6353,3.6445,3.6426,3.6428,3.6429,3.6436,3.6479,3.6503,3.6466,3.6466,3.6474,3.6529,3.6546,3.6551,3.6618,3.6571,3.6575,3.6577,3.6579,3.6734,3.6736,0,0,0,0,0,0,3.6338,3.635,3.6443,3.6447,3.6384,3.6432,3.644,3.6462,3.6503,3.6508,3.6475,3.6474,3.654,3.6547,3.6554,3.6621,3.6576,3.6579,3.6582,3.6733,3.6735,3.6737,0,0,0,0,0,0,3.6335,3.6346,3.644,3.6399,3.6411,3.6436,3.6461,3.6464,3.6481,3.651,3.6514,3.6488,3.6539,3.6548,3.6598,3.6624,3.6581,3.6585,3.6731,3.6733,3.6736,3.6755,0,0,0,0,0,0,3.6331,3.6345,3.6364,3.6399,3.6413,3.6482,3.6462,3.6467,3.6488,3.6487,3.6523,3.6527,3.6539,3.6592,3.6602,3.6628,3.6588,3.6729,3.6732,3.6735,3.6752,3.6757,3.6762,0,0,0,0,0,3.6327,3.6366,3.6365,3.6376,3.6437,3.6484,3.6492,3.6503,3.649,3.6511,3.653,3.6526,3.6619,3.6597,3.6608,3.6636,3.6727,3.6731,3.6735,3.6749,3.6756,3.6762,0,0,0,0,0,0,3.6332,3.637,3.637,3.6421,3.6449,3.6483,3.6509,3.651,3.6542,3.654,3.6553,3.6561,3.6612,3.6629,3.6604,3.6692,3.6672,3.6678,3.6679,3.6686,3.6691,3.6687,3.6592,0,0,0,0,0,3.634,3.6374,3.6405,3.6447,3.6462,3.6483,3.6504,3.6511,3.654,3.6552,3.6574,3.6604,3.664,3.6664,3.6698,3.6754,3.6764,3.6779,3.6784,3.6789,3.6794,3.683,3.6838,3.6749,3.6749,3.6749,0,0,3.6355,3.638,3.64,3.6449,3.6472,3.6508,3.6493,3.6531,3.6559,3.6558,3.6607,3.6625,3.6659,3.6713,3.6738,3.6729,3.6821,3.6793,3.6797,3.68,3.6834,3.6843,3.685,3.6752,3.6751,3.6751,0,0,3.6402,3.6423,3.6463,3.6486,3.6521,3.6536,3.6545,3.658,3.6592,3.6642,3.6643,3.6677,3.6738,3.6763,3.6784,3.6845,3.6845,3.6856,3.6884,3.6918,3.6925,3.6931,3.6957,3.6965,3.6861,3.6861,3.6861,0,3.6417,3.6471,3.6483,3.6522,3.6546,3.6547,3.6589,3.6611,3.6656,3.6672,3.6661,3.6741,3.6763,3.6826,3.6841,3.6856,3.687,3.6852,3.6923,3.6929,3.6936,3.696,3.6969,3.6863,3.6863,3.6862,3.6862,0,3.6489,3.6527,3.6555,3.6599,3.6625,3.6665,3.6685,3.671,3.6716,3.6732,3.6785,3.6813,3.6855,3.687,3.6875,3.6935,3.6928,3.692,3.69,3.6945,3.6969,3.6978,3.6865,3.6864,3.6864,3.6863,0,0,3.654,3.6593,3.6603,3.6626,3.6666,3.6696,3.6738,3.6779,3.6802,3.6833,3.6871,3.6924,3.6918,3.6942,3.695,3.698,3.7031,3.6968,3.697,3.6982,3.7103,3.7111,3.7121,3.7031,3.7032,3.7034,3.7101,0,3.6594,3.6668,3.6682,3.6747,3.6784,3.6788,3.6825,3.6855,3.6872,3.6907,3.6926,3.6965,3.6952,3.6967,3.6997,3.7019,3.7056,3.7014,3.7068,3.707,3.7062,3.7133,3.714,3.7203,3.711,3.7112,3.7113,0,3.6666,3.6701,3.677,3.6809,3.6826,3.6858,3.69,3.6933,3.6968,3.6979,3.7007,3.7013,3.7059,3.7037,3.7102,3.7073,3.7096,3.7111,3.7114,3.7121,3.7095,3.7145,3.7222,3.7233,3.7126,3.7125,3.7124,0,3.6701,3.6765,3.6816,3.6834,3.688,3.6904,3.6924,3.6958,3.6983,3.702,3.7037,3.7078,3.7102,3.7134,3.7152,3.7134,3.7218,3.7196,3.7231,3.7231,3.7249,3.7248,3.7335,3.726,3.726,3.726,3.726,0,3.676,3.6804,3.6833,3.6864,3.6914,3.693,3.6979,3.6999,3.703,3.7067,3.7072,3.7107,3.7127,3.7166,3.718,3.7235,3.7244,3.7256,3.726,3.7257,3.7256,3.7274,3.7271,3.7262,3.7262,3.7261,3.7261,0,3.6808,3.6829,3.6885,3.6925,3.6936,3.6971,3.7006,3.7038,3.7056,3.7103,3.7115,3.7144,3.719,3.7211,3.7267,3.7277,3.7341,3.734,3.7329,3.7331,3.7366,3.7364,3.7469,3.7485,3.7397,3.7398,3.7398,0,3.6846,3.688,3.6924,3.6949,3.6971,3.7011,3.7038,3.7056,3.7084,3.7129,3.7157,3.7203,3.7241,3.7315,3.7342,3.7387,3.7389,3.7423,3.7396,3.7393,3.7394,3.7393,3.7398,3.7428,3.7429,3.743,3.743,0,3.6912,3.6922,3.696,3.7004,3.7036,3.7071,3.7105,3.7126,3.715,3.7181,3.7229,3.7259,3.7318,3.7366,3.7413,3.7435,3.7438,3.7439,3.745,3.7449,3.7442,3.745,3.7346,3.7436,3.7436,3.7435,3.7435,3.7435,3.6958,3.699,3.7028,3.7071,3.7099,3.7132,3.7166,3.7189,3.7229,3.7279,3.7287,3.7339,3.7377,3.744,3.7465,3.7507,3.7499,3.7514,3.7519,3.7523,3.7527,3.7434,3.7515,3.7515,3.7515,3.7515,3.7515,0,3.7028,3.7053,3.7093,3.7142,3.7178,3.7177,3.7216,3.7246,3.7292,3.7326,3.7365,3.7422,3.7469,3.75,3.7549,3.7577,3.758,3.7589,3.7589,3.7595,3.7529,3.7517,3.7586,3.7586,3.7586,3.7586,3.7586,3.7586,3.7069,3.7124,3.7138,3.7209,3.7233,3.7285,3.7307,3.7339,3.7367,3.7431,3.747,3.7491,3.7526,3.7577,3.7621,3.7629,3.7648,3.7659,3.7667,3.7606,3.7599,3.7591,3.758,3.7662,3.7662,3.7729,3.773,3.773]},{"header":{"parameterUnit":"m.s-1","parameterCategory":1,"la1":30.2991,"la2":30.254,"lo1":-89.0895,"lo2":-89.0444,"dy":0.0017,"dx":0.0017,"nx":28,"ny":28,"refTime":"2024-02-22T03:00:00:Z","depth":0,"parameterNumber":3,"parameterNumberName":"V-component_of_WINDS"},"data":[0,0,0,0,0,0,0,0,0,0,0,0,0,0,0,0,0,0,0,0,0,0,0,0,0,0,0,0,0,0,0,0,0,0,0,0,0,0,0,0,0,0,0,0,0,0,0,0,0,0,0,0,0,0,0,0,0,0,-0.7969,-0.7969,0,-0.7969,-0.7969,-0.7969,-0.8,-0.8,-0.8001,-0.8002,-0.8001,-0.8001,-0.8,0,0,0,0,0,0,0,0,0,0,0,0,0,-0.7994,-0.7993,-0.7969,-0.7969,-0.7969,-0.7969,-0.7969,-0.7969,-0.7999,-0.8,-0.8001,-0.8002,-0.8002,-0.8001,-0.8,0,0,0,0,0,0,0,0,0,0,0,0,0,-0.7988,-0.7993,-0.7969,-0.7984,-0.7985,-0.7969,-0.7969,-0.7969,-0.7999,-0.8,-0.8002,-0.8003,-0.8002,-0.8001,-0.8,-0.7969,0,0,-0.7996,-0.7996,0,0,0,0,0,0,0,0,-0.7988,-0.7987,-0.7982,-0.7983,-0.7984,-0.7986,-0.7978,-0.7969,-0.7999,-0.7994,-0.8002,-0.8003,-0.7995,-0.7995,-0.7992,-0.7969,-0.7969,-0.7996,-0.7995,-0.7995,-0.7995,0,0,0,0,0,0,0,-0.7988,-0.7987,-0.7969,-0.7982,-0.7983,-0.7991,-0.7991,-0.7976,-0.7988,-0.7994,-0.7997,-0.7996,-0.7996,-0.7993,-0.7992,-0.7969,-0.7996,-0.7995,-0.7994,-0.7994,-0.7922,-0.7921,0,0,0,0,0,0,-0.7987,-0.7987,-0.7969,-0.7969,-0.7989,-0.7989,-0.799,-0.7984,-0.7988,-0.799,-0.7995,-0.7998,-0.7994,-0.7993,-0.7992,-0.7958,-0.7995,-0.7994,-0.7993,-0.7924,-0.7922,-0.7921,0,0,0,0,0,0,-0.7987,-0.7985,-0.7969,-0.7979,-0.7977,-0.7988,-0.7981,-0.7983,-0.798,-0.7989,-0.7991,-0.799,-0.7995,-0.7994,-0.7975,-0.7958,-0.7993,-0.7992,-0.7925,-0.7923,-0.7921,-0.7888,0,0,0,0,0,0,-0.7988,-0.7985,-0.7973,-0.7978,-0.7976,-0.7951,-0.798,-0.7982,-0.7978,-0.7982,-0.7984,-0.7986,-0.7996,-0.7976,-0.7974,-0.7957,-0.7991,-0.7927,-0.7924,-0.7922,-0.7891,-0.7885,-0.7881,0,0,0,0,0,-0.7989,-0.7963,-0.7972,-0.797,-0.7962,-0.795,-0.7949,-0.7962,-0.7977,-0.7966,-0.7971,-0.7986,-0.796,-0.7974,-0.7971,-0.7954,-0.7928,-0.7925,-0.7922,-0.7893,-0.7886,-0.7881,0,0,0,0,0,0,-0.7955,-0.7964,-0.7974,-0.795,-0.7949,-0.7955,-0.7941,-0.7954,-0.7949,-0.7952,-0.7967,-0.7968,-0.7947,-0.7949,-0.7964,-0.7926,-0.7947,-0.7943,-0.7926,-0.7919,-0.7914,-0.7915,-0.799,0,0,0,0,0,-0.7945,-0.7935,-0.7943,-0.792,-0.792,-0.793,-0.7926,-0.7935,-0.7935,-0.7935,-0.7939,-0.7938,-0.7931,-0.7925,-0.7918,-0.7891,-0.7893,-0.7878,-0.7873,-0.7869,-0.7866,-0.7854,-0.7848,-0.7912,-0.7912,-0.7912,0,0,-0.7923,-0.7927,-0.792,-0.7914,-0.7914,-0.7904,-0.793,-0.7917,-0.791,-0.7933,-0.7916,-0.7919,-0.7919,-0.7897,-0.7887,-0.7898,-0.7849,-0.7865,-0.7862,-0.7861,-0.785,-0.7844,-0.7839,-0.791,-0.791,-0.791,0,0,-0.788,-0.7881,-0.7863,-0.7864,-0.7865,-0.7872,-0.7868,-0.7873,-0.7876,-0.7859,-0.7877,-0.7868,-0.7854,-0.7854,-0.7852,-0.7809,-0.7824,-0.7807,-0.7781,-0.7769,-0.7764,-0.7759,-0.7746,-0.774,-0.7804,-0.7803,-0.7803,0,-0.7853,-0.7838,-0.7852,-0.7839,-0.7836,-0.7858,-0.784,-0.784,-0.7838,-0.7836,-0.7848,-0.7832,-0.7833,-0.7812,-0.7802,-0.7799,-0.7795,-0.7807,-0.7763,-0.7759,-0.7755,-0.7742,-0.7737,-0.7802,-0.7802,-0.7802,-0.7802,0,-0.7806,-0.7795,-0.7781,-0.778,-0.7776,-0.776,-0.7772,-0.7766,-0.7777,-0.7783,-0.7767,-0.7769,-0.7764,-0.7759,-0.7769,-0.774,-0.7747,-0.776,-0.7782,-0.7747,-0.7735,-0.773,-0.7799,-0.7799,-0.78,-0.7801,0,0,-0.7741,-0.7749,-0.7743,-0.7744,-0.7748,-0.774,-0.7726,-0.7721,-0.7716,-0.7715,-0.7704,-0.7692,-0.7706,-0.7703,-0.7713,-0.7702,-0.7671,-0.7718,-0.7718,-0.771,-0.7641,-0.7631,-0.7625,-0.768,-0.7679,-0.7678,-0.7641,0,-0.77,-0.7677,-0.769,-0.7665,-0.7656,-0.7677,-0.7665,-0.7666,-0.7672,-0.7665,-0.7671,-0.7663,-0.7681,-0.768,-0.767,-0.7676,-0.7657,-0.7679,-0.7671,-0.767,-0.7671,-0.7619,-0.7608,-0.7573,-0.7636,-0.7636,-0.7635,0,-0.7648,-0.7646,-0.7621,-0.7627,-0.7624,-0.7613,-0.7611,-0.7604,-0.7606,-0.7611,-0.7609,-0.7622,-0.761,-0.763,-0.7614,-0.7629,-0.7626,-0.7629,-0.7628,-0.7628,-0.7651,-0.7619,-0.7562,-0.7557,-0.7628,-0.7628,-0.7629,0,-0.7605,-0.7595,-0.758,-0.7579,-0.7586,-0.7578,-0.7581,-0.7584,-0.7581,-0.7579,-0.7577,-0.7573,-0.7571,-0.7568,-0.758,-0.7594,-0.7563,-0.7584,-0.7567,-0.7567,-0.756,-0.7561,-0.7503,-0.7556,-0.7557,-0.7557,-0.7557,0,-0.7559,-0.7543,-0.7561,-0.7551,-0.7534,-0.7549,-0.7532,-0.7537,-0.754,-0.7532,-0.7549,-0.7541,-0.7556,-0.755,-0.7559,-0.7545,-0.7543,-0.7548,-0.755,-0.7547,-0.7546,-0.7546,-0.7549,-0.7555,-0.7556,-0.7556,-0.7556,0,-0.7508,-0.7519,-0.7504,-0.7512,-0.7514,-0.7501,-0.7508,-0.75,-0.7507,-0.7497,-0.7495,-0.7507,-0.7501,-0.7512,-0.7507,-0.7513,-0.7494,-0.7499,-0.7493,-0.7495,-0.7479,-0.7481,-0.742,-0.7413,-0.7469,-0.7469,-0.7468,0,-0.7478,-0.7467,-0.7474,-0.747,-0.7472,-0.7465,-0.7463,-0.7477,-0.7474,-0.7476,-0.7468,-0.7463,-0.746,-0.7449,-0.7457,-0.7454,-0.7461,-0.744,-0.746,-0.7458,-0.7462,-0.7463,-0.7463,-0.7436,-0.7435,-0.7435,-0.7434,0,-0.7425,-0.7431,-0.7427,-0.7425,-0.7422,-0.7421,-0.7421,-0.7417,-0.7432,-0.7428,-0.7422,-0.742,-0.7415,-0.7411,-0.741,-0.7412,-0.7426,-0.7428,-0.7424,-0.7421,-0.7418,-0.7421,-0.7483,-0.7429,-0.743,-0.743,-0.743,-0.743,-0.7384,-0.7376,-0.738,-0.7376,-0.7378,-0.7378,-0.7371,-0.7378,-0.7373,-0.7371,-0.738,-0.7373,-0.7376,-0.7376,-0.7377,-0.7372,-0.7382,-0.7376,-0.7374,-0.7373,-0.7371,-0.7418,-0.7372,-0.7372,-0.7372,-0.7372,-0.7372,0,-0.7333,-0.7337,-0.7333,-0.7333,-0.733,-0.7343,-0.7344,-0.7341,-0.7334,-0.7336,-0.7334,-0.7328,-0.7324,-0.7332,-0.7329,-0.7324,-0.733,-0.7323,-0.7324,-0.7325,-0.7362,-0.7366,-0.7318,-0.7318,-0.7318,-0.7318,-0.7318,-0.7318,-0.7306,-0.7293,-0.73,-0.7288,-0.7293,-0.7286,-0.7286,-0.7286,-0.7289,-0.7281,-0.7278,-0.7284,-0.7289,-0.7287,-0.7284,-0.7287,-0.7286,-0.7276,-0.7281,-0.7316,-0.7322,-0.7327,-0.7331,-0.7276,-0.7276,-0.7244,-0.7244,-0.7244]}]]